Regional Weather Roundup
Issued by NWS

Home | Current Version | Previous Version | Text Only | Print | Product List | Glossary On
Versions: 1 2 3 4 5 6 7 8 9 10 11 12 13 14 15 16 17 18 19 20 21 22 23 24 25 26 27 28 29 30 31 32 33 34 35 36 37 38 39 40 41 42 43 44 45 46 47 48 49 50
000
ASUS43 KTOP 071008
RWRKS

WEATHER ROUNDUP FOR KANSAS
NATIONAL WEATHER SERVICE GOODLAND KS
500 AM CDT THU MAY 07 2015

NOTE:  "FAIR" INDICATES FEW OR NO CLOUDS BELOW 12,000 FEET WITH NO
SIGNIFICANT WEATHER AND/OR OBSTRUCTIONS TO VISIBILITY.

KSZ001>006-013>018-027>032-041>047-071100-
NORTHWEST KANSAS

CITY           SKY/WX    TMP DP  RH WIND       PRES   REMARKS
GOODLAND       CLOUDY    51  49  92 NW8       29.81R
HAYS           CLOUDY    64  55  72 SW9       29.76R
HILL CITY      MOCLDY    58  55  90 W7        29.76R
RUSSELL        PTCLDY    63  59  87 S15       29.73S
$$

KSZ061>065-074>080-084>089-071100-
SOUTHWEST KANSAS

CITY           SKY/WX    TMP DP  RH WIND       PRES   REMARKS
DODGE CITY     PTCLDY    62  58  86 SW14      29.76R
ELKHART          N/A     56  47  72 W7          N/A
GARDEN CITY    PTCLDY    52  49  89 NW12      29.76F
GREAT BEND     MOCLDY    63  57  82 S23G29    29.74S
LIBERAL        MOCLDY    59  52  77 S16       29.78R
PRATT          CLOUDY    63  59  88 S23G32    29.78R
$$

KSZ066>073-081>083-090>101-071100-
SOUTHEAST KANSAS

CITY           SKY/WX    TMP DP  RH WIND       PRES   REMARKS
CHANUTE        CLOUDY    69  62  78 SE17      29.83F
COFFEYVILLE    CLOUDY    68  61  78 SE10      29.84F
HUTCHINSON     PTCLDY    67  60  78 S24G31    29.75R
MEDICINE LODGE   N/A     64  62  93 S7        29.78R
NEWTON         CLEAR     64  55  72 S22       29.79S
PARSONS        CLOUDY    69  63  81 SE5       29.86F
WICHITA INTL   MOCLDY    65  61  87 S15       29.78S
WICHITA JABRA  PTCLDY    65  61  87 S16G28    29.78S
WICHITA MCCONL PTCLDY    65  62  89 SE15      29.79R
WINFIELD       CLOUDY    66  63  90 S13       29.81R
$$

KSZ007>012-019>026-033>040-048>060-102>105-071100-
NORTHEAST KANSAS

CITY           SKY/WX    TMP DP  RH WIND       PRES   REMARKS
CONCORDIA      CLOUDY    65  56  72 S23G32    29.72R
EMPORIA        MOCLDY    69  57  65 S24G30    29.77R
LAWRENCE       CLOUDY    67  58  72 S15       29.79S
MANHATTAN      MOCLDY    68  56  65 SW12      29.73R
MARYSVILLE     CLOUDY    64  59  82 S7        29.74R
OLATHE IND     CLOUDY    67  59  75 S15       29.83S
OLATHE EXE     MOCLDY    67  60  78 S14       29.83S
SALINA         CLOUDY    68  58  70 SW16      29.75R
TOPEKA BILLARD MOCLDY    68  58  70 S13       29.77R
TOPEKA FORBES  CLOUDY    68  58  70 SE13      29.77R
$$


USA.gov is the U.S. government's official web portal to all federal, state and local government web resources and services.